This is the latest recevied weather packets stored in our database for station/object WB4MOZ-3. If no packets are shown the sender has not sent any weather packets the latest 10 day(s).
| Time | Temp. | Humidity | Pressure | Rain* | Wind** | Luminosity | Snow |
|---|---|---|---|---|---|---|---|
| 1778080778 | 33.33° C | 55% | 1015.7 hPa | 0 mm | - | - | - |
| 1778080478 | 32.78° C | 55% | 1015.8 hPa | 0 mm | - | - | - |
| 1778079879 | 31.67° C | 57% | 1015.8 hPa | 0 mm | - | - | - |
| 1778079579 | 31.67° C | 59% | 1015.9 hPa | 0 mm | - | - | - |
| 1778079279 | 31.67° C | 58% | 1015.9 hPa | 0 mm | - | - | - |
| 1778078978 | 31.11° C | 60% | 1015.8 hPa | 0 mm | - | - | - |
| 1778078680 | 31.67° C | 60% | 1015.8 hPa | 0 mm | - | - | - |
| 1778078378 | 31.67° C | 61% | 1015.8 hPa | 0 mm | - | - | - |
| 1778078079 | 31.67° C | 62% | 1015.8 hPa | 0 mm | - | - | - |
| 1778077779 | 31.11° C | 62% | 1015.7 hPa | 0 mm | - | - | - |
| 1778077479 | 31.11° C | 62% | 1015.7 hPa | 0 mm | - | - | - |
| 1778077178 | 31.11° C | 66% | 1015.7 hPa | 0 mm | - | - | - |
| 1778076878 | 30.56° C | 68% | 1015.7 hPa | 0 mm | - | - | - |
| 1778076578 | 30° C | 68% | 1015.7 hPa | 0 mm | - | - | - |
| 1778076278 | 30° C | 63% | 1015.7 hPa | 0 mm | - | - | - |
| 1778075979 | 30° C | 65% | 1015.6 hPa | 0 mm | - | - | - |
| 1778075679 | 30° C | 65% | 1015.6 hPa | 0 mm | - | - | - |
| 1778075489 | 30° C | 66% | 1015.6 hPa | 0 mm | - | - | - |
| 1778075378 | 30° C | 66% | 1015.6 hPa | 0 mm | - | - | - |
| 1778075078 | 30° C | 66% | 1015.6 hPa | 0 mm | - | - | - |
| 1778074878 | 29.44° C | 67% | 1015.6 hPa | 0 mm | - | - | - |
| 1778074779 | 29.44° C | 67% | 1015.6 hPa | 0 mm | - | - | - |
| 1778074478 | 29.44° C | 68% | 1015.6 hPa | 0 mm | - | - | - |
| 1778074178 | 28.89° C | 72% | 1015.5 hPa | 0 mm | - | - | - |
| 1778073879 | 28.89° C | 72% | 1015.5 hPa | 0 mm | - | - | - |
* Rain latest hour (hover to see other rain measurements)
** Current wind speed in m/s (hover to see current wind gust speed)